www.pogodaiklimat.ru

Погода и климат >> Архив погоды >> Венгрия >> Залаэгерсег


ПОГОДА в Залаэгерсеге

  • Прогноз погоды в Залаэгерсеге
  • Монитор погоды в Залаэгерсеге

АРХИВ ПОГОДЫ в Залаэгерсеге

Время (UTC), дата Ветер
(напр.,м/с)
 
Видим.   Явления Облачность Т
(С)
Тd
(С)
f
(%)
Тe
(С)
Тes
(С)
Комфортность P
(гПа)
Po
(гПа)
Тmin
(С)
Tmax
(С)
R
(мм)
R24
(мм)
S
(см)
19 18.08 ЮВ 3 н/о н/о +22.9 +17.6 72 +28 +28 душно 1013.4 985.7
20 18.08 ЮВ 4 н/о н/о +22.4 +17.1 72 +27 +27 душно 1013.5 985.7
21 18.08 ЮВ 4 н/о н/о +22.3 +17.0 72 +27 +27 душно 1013.4 985.6
22 18.08 ЮВ 3
{7}
н/о н/о +21.5 +17.1 76 +25 +25 комфорт 1013.9 986.0
23 18.08 ЮВ 4 н/о н/о +20.9 +17.1 79 +25 +25 комфорт 1013.6 985.7
00 19.08 Ю 4 н/о н/о +21.1 +16.9 77 +25 +25 комфорт 1013.3 985.4
01 19.08 Ю 4
{7}
н/о н/о +21.5 +16.2 72 +25 +25 комфорт 1013.2 985.3
02 19.08 Ю 4
{7}
н/о н/о +20.4 +16.0 76 +23 +23 комфорт 1013.3 985.3
03 19.08 ЮВ 3 н/о н/о +18.8 +16.0 84 +20 +20 1013.5 985.4
04 19.08 Ю 2 н/о н/о +18.4 +15.8 85 +20 +20 1014.0 985.8
05 19.08 Ю 2 н/о н/о +19.3 +15.8 80 +22 +22 комфорт 1014.3 986.2
06 19.08 Ю 2 н/о н/о +21.1 +16.1 73 +24 +24 комфорт 1014.8 986.9 +18.1
07 19.08 Ю 2 н/о н/о +21.7 +16.0 70 +25 +25 комфорт 1015.1 987.2
08 19.08 В 1 н/о н/о +24.7 +16.4 60 +28 +28 душно 1015.6 988.0
09 19.08 В 3 н/о н/о +25.8 +16.9 58 +30 +30 душно 1015.9 988.4
10 19.08 СВ 4
{8}
н/о н/о +27.4 +16.4 51 +31 +31 душно 1015.8 988.4
11 19.08 С 2
{8}
н/о н/о +28.2 +16.2 48 +31 +31 душно 1015.9 988.6
12 19.08 С 3 н/о н/о +28.9 +15.4 44 +32 +32 душно 1015.9 988.6
13 19.08 В 2 н/о н/о +29.3 +17.2 48 +33 +33 душно 1015.7 988.5
14 19.08 В 2 н/о н/о +29.5 +17.0 47 +33 +33 душно 1015.4 988.2
15 19.08 В 2 н/о н/о +29.1 +16.0 45 +32 +32 душно 1015.4 988.2
16 19.08 ЮВ 2 н/о н/о +28.7 +15.6 45 +32 +32 душно 1015.2 987.9
17 19.08 ЮВ 1 н/о н/о +27.5 +17.1 53 +31 +31 душно 1015.3 987.9
18 19.08 Ю 1 н/о н/о +24.3 +19.2 73 +29 +29 душно 1016.1 988.4 +29.9
19 19.08 штиль 0 н/о н/о +22.6 +19.0 80 +28 +28 душно 1016.9 989.0
20 19.08 СЗ 1 н/о н/о +22.8 +18.1 75 +28 +28 душно 1017.5 989.6
21 19.08 СЗ 1 н/о н/о +23.5 +17.0 67 +27 +27 душно 1017.5 989.7
22 19.08 СЗ 2 н/о н/о +22.2 +17.1 73 +27 +27 душно 1017.7 989.8
23 19.08 СЗ 2 н/о н/о +20.2 +17.2 83 +24 +24 комфорт 1018.4 990.3
00 20.08 СЗ 2 н/о н/о +19.4 +17.2 87 +22 +22 комфорт 1018.1 989.9
01 20.08 СЗ 1 н/о н/о +19.3 +16.7 85 +22 +22 комфорт 1018.2 990.0
02 20.08 Ю 2 н/о н/о +18.1 +16.6 91 +19 +19 1018.6 990.3
03 20.08 С 1 н/о н/о +18.3 +16.1 87 +20 +20 1018.6 990.3
04 20.08 СВ 2 н/о н/о +18.9 +15.8 82 +21 +21 комфорт 1018.7 990.4
05 20.08 С 2 н/о н/о +19.8 +16.1 79 +23 +23 комфорт 1018.9 990.7
06 20.08 С 2 н/о н/о +21.7 +16.2 71 +25 +25 комфорт 1019.0 991.0 +17.7
07 20.08 С 4
{7}
н/о н/о +23.1 +16.6 67 +28 +28 душно 1019.1 991.2
08 20.08 С 2 н/о н/о +24.7 +17.7 65 +29 +29 душно 1019.0 991.3
09 20.08 С 1 н/о н/о +26.3 +17.4 58 +30 +30 душно 1019.1 991.5
10 20.08 Ю 1 н/о н/о +27.4 +19.0 60 +33 +33 очень
душно
1018.9 991.4
11 20.08 ЮВ 2 н/о н/о +28.3 +18.4 55 +33 +33 очень
душно
1018.5 991.1
12 20.08 З 1 н/о н/о +29.4 +17.6 49 +34 +34 очень
душно
1018.1 990.8
13 20.08 Ю 3 н/о н/о +29.8 +18.3 50 +35 +35 очень
душно
1017.6 990.4
14 20.08 Ю 2 н/о н/о +30.0 +17.8 48 +34 +34 очень
душно
1017.4 990.2
15 20.08 ЮЗ 2 н/о н/о +30.3 +17.4 46 +34 +34 очень
душно
1017.2 990.0
16 20.08 Ю 1 н/о н/о +29.9 +18.4 50 +35 +35 очень
душно
1016.9 989.7
17 20.08 ЮВ 1 н/о н/о +29.1 +19.4 56 +35 +35 очень
душно
1016.8 989.5
18 20.08 Ю 2 н/о н/о +26.9 +17.9 58 +31 +31 душно 1016.9 989.4 +30.7
19 20.08 ЮВ 2 н/о н/о +25.4 +18.6 66 +30 +30 душно 1017.2 989.6
20 20.08 Ю 1 н/о н/о +24.3 +18.9 72 +29 +29 душно 1017.2 989.5
21 20.08 ЮЗ 2 н/о н/о +24.4 +17.9 67 +29 +29 душно 1017.2 989.5
22 20.08 ЮЗ 2 н/о н/о +22.9 +17.8 73 +28 +28 душно 1017.2 989.4
23 20.08 ЮЗ 1 н/о н/о +22.8 +18.1 75 +28 +28 душно 1017.1 989.3
00 21.08 штиль 0 н/о н/о +21.8 +18.0 79 +26 +26 душно 1017.2 989.3
01 21.08 СЗ 3 н/о н/о +20.9 +18.1 84 +25 +25 комфорт 1017.9 989.9
02 21.08 С 5
{9}
н/о н/о +21.5 +17.5 78 +26 +26 душно 1018.8 990.8
03 21.08 С 6
{10}
н/о н/о +20.9 +16.1 74 +24 +24 комфорт 1019.5 991.4
04 21.08 С 7
{13}
н/о н/о +19.5 +13.7 69 +21 +21 комфорт 1020.9 992.6
05 21.08 С 9
{15}
н/о н/о +18.2 +12.9 71 +17 +17 1022.2 993.8
06 21.08 С 8
{16}
н/о н/о +18.7 +12.9 69 +18 +18 1023.1 994.7 +18.1
07 21.08
{15}
н/о н/о +19.1 +12.1 64 1023.5 995.1
08 21.08 С 9
{17}
н/о н/о +16.6 +13.1 80 +15 +15 1024.3 995.7
09 21.08 С 7
{13}
н/о н/о +19.0 +13.0 68 +19 +19 1024.4 996.0
10 21.08
{15}
н/о н/о +20.5 +13.7 65 1024.5 996.2
11 21.08
{14}
н/о н/о +21.5 +13.4 60 1024.4 996.2
12 21.08 С 8
{14}
н/о н/о +21.5 +13.7 61 +24 +24 комфорт 1024.6 996.4 3
13 21.08 С 7
{14}
н/о н/о +19.8 +12.6 63 +21 +21 комфорт 1024.5 996.2
14 21.08 С 6
{12}
н/о н/о +19.8 +12.8 64 +21 +21 комфорт 1024.7 996.4
15 21.08 С 7
{13}
н/о н/о +19.6 +12.6 64 +21 +21 комфорт 1024.9 996.5
16 21.08 С 6
{13}
н/о н/о +19.8 +12.6 63 +21 +21 комфорт 1024.7 996.4
17 21.08 С 5
{13}
н/о н/о +18.5 +12.3 67 +19 +19 1025.1 996.6
18 21.08 С 5
{11}
н/о н/о +18.2 +12.2 68 +18 +18 1025.0 996.5 +22.1 3
19 21.08 С 4
{8}
н/о н/о +17.6 +12.3 71 +17 +17 1025.4 996.8
20 21.08 С 5
{9}
н/о н/о +17.4 +11.9 70 +17 +17 1025.5 996.9
21 21.08 С 4
{8}
н/о н/о +16.8 +11.7 72 +16 +16 1025.8 997.1
22 21.08 С 5
{9}
н/о н/о +16.3 +11.9 75 +15 +15 1025.7 997.0
23 21.08 С 5
{11}
н/о н/о +16.1 +11.9 76 +15 +15 1025.5 996.8
00 22.08 С 4
{9}
н/о н/о +16.0 +11.6 75 +15 +15 1025.4 996.7
01 22.08 С 4
{7}
н/о н/о +15.5 +11.7 78 +15 +15 1025.3 996.5
02 22.08 С 3
{9}
н/о н/о +15.6 +11.8 78 +15 +15 1025.2 996.4
03 22.08 С 4
{7}
н/о н/о +15.5 +11.9 79 +15 +15 1024.9 996.1
04 22.08 С 3 н/о н/о +15.1 +11.9 81 +14 +14 1025.3 996.5
05 22.08 С 3 н/о н/о +15.5 +12.1 80 +15 +15 1025.4 996.6
06 22.08 С 3
{8}
н/о н/о +15.9 +12.5 80 +15 +15 1025.4 996.7 +15.1
07 22.08 С 4 н/о н/о +17.0 +13.1 78 +17 +17 1025.1 996.5
08 22.08 С 3
{7}
н/о н/о +18.7 +13.6 72 +20 +20 1025.0 996.5
09 22.08 С 3 н/о н/о +20.4 +13.8 66 +23 +23 комфорт 1024.9 996.6
10 22.08 С 4
{7}
н/о н/о +20.9 +15.0 69 +24 +24 комфорт 1024.7 996.5
11 22.08 С 3 н/о н/о +21.9 +14.3 62 +25 +25 комфорт 1024.1 996.0
12 22.08 С 3 н/о н/о +23.0 +14.8 60 +27 +27 душно 1023.6 995.6
13 22.08 С 2 н/о н/о +23.0 +14.3 58 +27 +27 душно 1023.5 995.5
14 22.08 СЗ 3 н/о н/о +22.8 +14.4 59 +26 +26 жарко 1023.4 995.4
15 22.08 С 2 н/о н/о +21.9 +14.5 63 +25 +25 комфорт 1023.3 995.2
16 22.08 С 2 н/о н/о +21.3 +15.6 70 +25 +25 комфорт 1023.1 994.9
17 22.08 С 2 н/о н/о +20.9 +15.4 71 +25 +25 комфорт 1023.1 994.9
18 22.08 С 2 н/о н/о +19.7 +15.6 77 +22 +22 комфорт 1023.2 994.9 +23.7
19 22.08 СЗ 2 н/о н/о +18.9 +15.8 82 +21 +21 комфорт 1024.3 995.9
20 22.08 С 2 н/о н/о +18.8 +15.7 82 +20 +20 1024.5 996.1
21 22.08 С 3 н/о н/о +19.1 +15.6 80 +21 +21 комфорт 1024.5 996.1
22 22.08 С 2 н/о н/о +18.7 +15.8 83 +20 +20 1024.6 996.2
23 22.08 СЗ 3 н/о н/о +18.3 +15.7 85 +19 +19 1024.3 995.8
00 23.08 С 1 н/о н/о +18.4 +15.6 84 +20 +20 1024.6 996.1
01 23.08 С 2 н/о н/о +18.1 +15.9 87 +19 +19 1024.7 996.2
02 23.08 н/о н/о +18.6 +15.7 83 1024.4 996.0
03 23.08 С 2 н/о н/о +18.0 +15.6 86 +19 +19 1024.3 995.8
04 23.08 С 2 н/о н/о +17.8 +15.4 86 +18 +18 1024.4 995.9
05 23.08 С 3 н/о н/о +18.2 +15.5 84 +19 +19 1024.8 996.3
06 23.08 С 4 н/о н/о +18.8 +15.7 82 +20 +20 1024.8 996.4 +17.5
07 23.08 С 3 н/о н/о +19.7 +15.8 78 +22 +22 комфорт 1025.3 996.9
08 23.08 н/о н/о +21.6 +16.8 74 1025.3 997.1
09 23.08 С 3 н/о н/о +22.6 +16.4 68 +27 +27 душно 1025.0 996.9
10 23.08 С 2
{7}
н/о н/о +24.3 +17.1 64 +28 +28 душно 1024.6 996.7
11 23.08
{7}
н/о н/о +25.4 +18.1 64 1024.0 996.2
12 23.08 С 3
{7}
н/о н/о +26.0 +17.4 59 +30 +30 душно 1023.5 995.8
13 23.08 С 2 н/о н/о +26.7 +17.8 58 +31 +31 душно 1023.1 995.4
14 23.08 СЗ 2 н/о н/о +26.8 +17.3 56 +31 +31 душно 1022.7 995.1
15 23.08 СЗ 2 н/о н/о +26.7 +17.5 57 +31 +31 душно 1022.3 994.7
16 23.08 С 3 н/о н/о +26.5 +17.6 58 +31 +31 душно 1021.9 994.3
17 23.08 С 2 н/о н/о +25.9 +17.5 60 +30 +30 душно 1021.7 994.0
18 23.08 С 2 н/о н/о +23.8 +17.1 66 +28 +28 душно 1022.2 994.3 +27.4
19 23.08 С 2 н/о н/о +22.9 +16.9 69 +28 +28 душно 1022.8 994.8
20 23.08 С 2 н/о н/о +21.7 +17.3 76 +26 +26 душно 1022.8 994.7
21 23.08 СЗ 2 н/о н/о +21.4 +17.2 77 +25 +25 комфорт 1022.6 994.5
22 23.08 С 2 н/о н/о +20.6 +17.0 80 +25 +25 комфорт 1022.3 994.1
23 23.08 СЗ 2 н/о н/о +19.8 +17.0 84 +23 +23 комфорт 1022.4 994.1
00 24.08 С 1 н/о н/о +19.5 +17.1 86 +23 +23 комфорт 1022.2 993.9
01 24.08 С 2 н/о н/о +19.3 +16.9 86 +22 +22 комфорт 1022.2 993.9
02 24.08 СЗ 2 н/о н/о +18.6 +16.8 89 +20 +20 1022.0 993.6
03 24.08 С 2 н/о н/о +18.5 +16.8 90 +20 +20 1022.0 993.6
04 24.08 С 3 н/о н/о +18.2 +16.7 91 +19 +19 1022.0 993.6
05 24.08 С 2 н/о н/о +18.9 +17.0 89 +21 +21 комфорт 1021.9 993.6
06 24.08 С 1 н/о н/о +20.1 +17.7 86 +24 +24 комфорт 1021.8 993.6 +18.1
07 24.08 С 1 н/о н/о +22.4 +18.2 77 +28 +28 душно 1021.8 993.8
08 24.08 В 1 н/о н/о +23.4 +18.1 72 +29 +29 душно 1021.7 993.8
09 24.08 СВ 2 н/о н/о +25.0 +18.0 65 +29 +29 душно 1021.4 993.6
10 24.08 С 2 н/о н/о +26.5 +17.8 59 +31 +31 душно 1020.8 993.2
11 24.08 В 2 н/о н/о +27.4 +18.7 59 +32 +32 очень
душно
1020.5 993.0
12 24.08 В 2 н/о н/о +26.1 +17.5 59 +30 +30 душно 1020.3 992.7
13 24.08 С 1 н/о н/о +24.7 +20.0 75 +30 +30 очень
душно
1020.1 992.3
14 24.08 СЗ 1 н/о н/о +27.9 +19.9 62 +34 +34 очень
душно
1018.8 991.4
15 24.08 В 2 н/о н/о +28.8 +18.3 53 +34 +34 очень
душно
1018.4 991.1
16 24.08 В 2 н/о н/о +27.3 +19.1 61 +33 +33 очень
душно
1018.8 991.3
17 24.08 ЮВ 1 н/о н/о +25.5 +21.4 78 +32 +32 очень
душно
1018.7 991.1
18 24.08 З 4
{8}
н/о н/о +21.6 +16.8 74 +26 +26 душно 1019.3 991.3 +28.8 0.7
19 24.08 СЗ 1 н/о н/о +20.7 +17.1 80 +25 +25 комфорт 1019.7 991.6
20 24.08 СЗ 2
{8}
н/о н/о +19.2 +17.5 90 +22 +22 комфорт 1020.2 991.9
21 24.08 С 4
{7}
н/о н/о +19.4 +17.4 88 +21 +21 комфорт 1019.9 991.7
22 24.08 З 3 н/о н/о +19.0 +16.8 87 +21 +21 комфорт 1020.3 992.0
23 24.08 С 1 н/о н/о +18.4 +16.9 91 +20 +20 1020.9 992.5
00 25.08 СЗ 2 н/о н/о +18.1 +17.0 93 +19 +19 1020.3 991.9 0.8
01 25.08 С 3 н/о н/о +17.9 +16.6 92 +18 +18 1019.8 991.4
02 25.08 С 2 н/о н/о +17.6 +16.3 92 +18 +18 1019.8 991.4
03 25.08 С 3 н/о н/о +17.9 +16.2 90 +18 +18 1020.2 991.8
04 25.08 СВ 5
{9}
н/о н/о +17.9 +16.6 92 +17 +17 1020.3 991.9
05 25.08 С 3
{7}
н/о н/о +18.0 +16.9 93 +18 +18 1020.2 991.8
06 25.08 С 4
{8}
н/о н/о +19.0 +17.7 92 +19 +19 1020.1 991.8 +17.5 2
07 25.08
{7}
н/о н/о +19.8 +17.8 88 1020.4 992.2
08 25.08 С 3 н/о н/о +22.7 +18.5 77 +28 +28 душно 1020.4 992.5
09 25.08 В 2 н/о н/о +23.4 +18.7 75 +30 +30 очень
душно
1020.7 992.8
10 25.08 С 2 н/о н/о +24.5 +17.7 66 +29 +29 душно 1020.2 992.4
11 25.08 В 3 н/о н/о +25.0 +18.4 67 +30 +30 душно 1020.1 992.4
12 25.08 В 2 н/о н/о +26.5 +18.4 61 +31 +31 душно 1019.6 992.0
13 25.08 В 3 н/о н/о +25.7 +19.6 69 +31 +31 очень
душно
1019.3 991.7
14 25.08 В 2 н/о н/о +26.2 +19.1 65 +31 +31 очень
душно
1018.5 990.9
15 25.08 СВ 3 н/о н/о +25.0 +19.1 70 +30 +30 душно 1018.6 990.9
16 25.08 СВ 3 н/о н/о +25.1 +18.5 67 +30 +30 душно 1018.8 991.1
17 25.08 В 2 н/о н/о +24.1 +19.0 73 +29 +29 душно 1019.0 991.2

 

Местоположение метеостанции Залаэгерсег (Венгрия): широта 46.87 долгота 16.80 высота над уровнем моря 180 м.

В архиве по умолчанию представлена погода в Залаэгерсеге за последнюю неделю. Архивные данные за месяц целиком и за предыдущие месяцы, начиная с января 2011 года, Вы можете получить, выбрав интересующий диапазон дат из раскрывающегося списка и нажав кнопку "Ввод!".


*Определитесь, кто Вы:
робот инопланетянин человек

Внимание! Время в таблицах - всемирное. Для получения местного времени необходимо прибавить поправку, которая равна 1 ч.

Смотрите также архив погоды в соседних городах и на ближайших метеорологических станциях:

Погода в Шармеллеке (Венгрия) (35 км)
Погода в Сентготтхарде (Венгрия) (37 км)
Погода в Сомбатхее (Венгрия) (46 км)
Погода в Надьканиже (Венгрия) (48 км)
Погода в Кляйнциккене (Австрия) (51 км)
Погода в Мурска-Соботе (Словения) (53 км)
Погода в Бад-Радкерсбурге (Австрия) (66 км)
Погода в Бад-Тацмансдорфе (Австрия) (67 км)
Погода в Луцмансбурге (Австрия) (68 км)
Погода в Бад-Глайхенбере (Австрия) (68 км)

Пояснения к столбцам:

Ветер - указаны скорость ветра в м/с - средняя за 10 мин, порывы в срок и между сроками (в фигурных скобках) и направление, откуда дует ветер: С - северный, СВ - северо-восточный, В - восточный, ЮВ - юго-восточный, Ю - южный, ЮЗ - юго-западный, З - западный, СЗ - северо-западный.
Видимость - горизонтальная дальность видимости в метрах или километрах. При видимости от 1 до 10 км при отсутствии осадков обычно наблюдается дымка, при ухудшении видимости до 1 км и менее - туман. В сухую погоду видимость может ухудшаться дымом, пылью или мглою.
Явления - указаны атмосферные явления, наблюдавшиеся в срок или в последний час перед сроком; фигурными скобками обозначены явления, наблюдавшиеся между сроками (за 1-3 часа до срока); квадратными скобками обозначены град или гололедные отложения с указанием их диаметра в мм.
Облачность - указаны через наклонную черту общая и нижняя облачность в баллах и высота нижней границы облаков в метрах; квадратными скобками обозначены формы облаков: Ci - перистые, Cs - перисто-слоистые, Cc - перисто-кучевые, Ac - высококучевые, As - высокослоистые, Sc - слоисто-кучевые, Ns - слоисто-дождевые, Cu - кучевые, Cb - кучево-дождевые. Подробнее классификацию облаков см. в Атласе облаков (PDF).
T - Температура воздуха - температура, измеренная на высоте 2 м над землей.
Td - Температура точки росы - температура, при понижении до которой содержащийся в воздухе водяной пар достигнет насыщения.
f - Относительная влажность воздуха - влажноcть воздуха, измеренная на высоте 2 м над землей.
Te - Эффективная температура - температура, которую ощущает одетый по сезону человек в тени. Характеристика душности погоды. При расчете учитывается влияние влажности воздуха и скорости ветра на теплоощущения человека.
Tes - Эффективная температура на солнце - температура, которую ощущает человек, с поправкой на солнечный нагрев. Характеристика знойности погоды. Зависит от высоты солнца над горизонтом, облачности и скорости ветра. Ночью, в пасмурную погоду, а также при ветре 12 м/с и более поправка равна нулю.
P - Атмосферное давление - приведенное к уровню моря атмосферное давление.
Po - Атмосферное давление - измеренное на уровне метеостанции атмосферное давление.
Tmin - Минимальная температура - минимум температуры воздуха на высоте 2 м над землей.
Tmax - Максимальная температура - максимум температуры воздуха на высоте 2 м над землей.
R - Количество осадков - Количество выпавших осадков за период времени, мм. При наведении курсора мыши на число - период времени, за который выпало указанное количество осадков.
R24 - Количество осадков - Количество выпавших осадков за 24 часа, мм.
S - Снежный покров - Высота снежного покрова, см. При наведении курсора мыши на число - состояние снежного покрова и степень покрытия местности в баллах.